{"data":{"norad_id":69175,"intl_designator":"2026-111AD","name":"STARLINK-37385","alt_names":[],"object_type":"PAYLOAD","status":"ACTIVE","operator":null,"country":"US","launch_date":"2026-05-21","launch_site_code":"AFETR","launch_vehicle":null,"mission":null,"orbit_class":"UNKNOWN","rcs_meters":null,"size_class":null,"mass_kg":null,"dimensions":null,"purposes":["comms"],"wikipedia_slug":null,"has_3d_model":false,"image_url":null,"decayed_at":null,"tle_current":{"epoch":"2026-09-20T04:26:34.615104Z","epoch_age_seconds":54180,"freshness":"FRESH","line1":"1 69175U 26111AD  26263.18512286  .00021076  00000+0  63338-3 0  9992","line2":"2 69175  53.1592  66.9818 0000955 235.9156 124.1756 15.34388276 18858","mean_motion":15.34388276,"eccentricity":9.55e-5,"inclination_deg":53.1592,"raan_deg":66.9818,"arg_perigee_deg":235.9156,"mean_anomaly_deg":124.1756,"bstar":0.00063338,"rev_number":1885,"period_min":93.848475156102,"perigee_km":462.08478305693,"apogee_km":463.39139019848,"semimajor_km":6840.8750866277,"source":"CELESTRAK","updated_at":"2026-09-20T09:00:44.094978Z"}}}